Flag for Switzerland Weather past 2 weeks in Bellinzona, Ticino, Switzerland

Now
32 °F

Chilly.


Feels Like: 32 °F
Forecast: 42 / 59 °F
Wind: 2 mph from West

Location: Locarno-Magadino

Current Time: Dec 21, 2014 at 1:46:35 AM

Latest Report: Dec 21, 2014 at 1:00 AM


Visibility: N/A

Pressure: 30.25 "Hg

Humidity: 90%

Dew point: 30 °F

Location of BellinzonaLocation

Historic Weather in Bellinzona — Graph

°F

Bellinzona temperature yesterday

Maximum temperature yesterday: 52 °F (at 1:00 PM)
Minimum temperature yesterday: 31 °F (at 5:00 AM)
Average temperature yesterday: 37 °F

Past Weeks' High & Low Weather Summary

 TemperatureHumidityPressure
High53 °F (Dec 9, 12:00 PM)100% (Dec 6, 5:00 AM)30.30 "Hg (Dec 6, 5:00 AM)
Low26 °F (Dec 12, 8:00 AM)28% (Dec 9, 1:00 PM)29.86 "Hg (Dec 16, 5:00 PM)
Average40 °F87%30.11 "Hg
* Reported Midnight between Dec 5 and Dec 6 — Midnight between Dec 20 and Dec 21, Bellinzona, Weather by CustomWeather, © 2014

Note: Actual official high and low records may vary slightly from our data, if they occured in-between our weather recording intervals... More about our weather records

Advertising

Bellinzona weather history for previous 24 hours

 ConditionsComfort  
Time TempWeatherWind HumidityBarometerVisibility
12:00 AM
Dec 21
34 °FChilly.3 mph88%30.24 "HgN/A
11:00 PM
Dec 20
32 °FChilly.2 mph94%30.24 "HgN/A
9:00 PM31 °FChilly.1 mph96%30.23 "HgN/A
8:00 PM35 °FChilly.2 mph95%30.22 "HgN/A
7:00 PM35 °FChilly.1 mph93%30.22 "HgN/A
6:00 PM35 °FChilly.3 mph97%30.20 "HgN/A
5:00 PM39 °FChilly.2 mph88%30.18 "HgN/A
4:00 PM41 °FQuite cool.1 mph89%30.18 "HgN/A
3:00 PM46 °FCool.5 mph73%30.17 "HgN/A
2:00 PM51 °FCool.6 mph67%30.18 "HgN/A
1:00 PM52 °FCool.3 mph67%30.19 "HgN/A
12:00 PM46 °FCool.2 mph77%30.21 "HgN/A
11:00 AM41 °FQuite cool.1 mph89%30.25 "HgN/A
10:00 AM32 °FChilly.1 mph96%30.26 "HgN/A
9:00 AM33 °FChilly.3 mph96%30.26 "HgN/A
8:00 AM33 °FChilly.2 mph95%30.24 "HgN/A
7:00 AM32 °FChilly.2 mph94%30.23 "HgN/A
6:00 AM33 °FChilly.2 mph97%30.22 "HgN/A
5:00 AM31 °FChilly.1 mph98%30.22 "HgN/A
4:00 AM32 °FChilly.2 mph98%30.22 "HgN/A
3:00 AM36 °FChilly.3 mph97%30.22 "HgN/A
2:00 AM33 °FChilly.2 mph100%30.22 "HgN/A
1:00 AM34 °FChilly.2 mph98%30.22 "HgN/A
Weather by CustomWeather, © 2014

See weather overviewHow to use our weather pages